TimeEET,TemperatureF,Dew PointF,Humidity,Sea Level PressureIn,VisibilityMPH,Wind Direction,Wind SpeedMPH,Gust SpeedMPH,PrecipitationIn,Events,Conditions,WindDirDegrees,DateUTC
12:20 AM,53.6,53.6,100,30.01,6.2,North,4.6,-,N/A,,Mostly Cloudy,10,2013-01-21 22:20:00
12:50 AM,53.6,51.8,94,29.98,6.2,NE,5.8,-,N/A,,Mostly Cloudy,40,2013-01-21 22:50:00
1:20 AM,53.6,51.8,94,29.98,6.2,SE,3.5,-,N/A,,Mostly Cloudy,130,2013-01-21 23:20:00
1:50 AM,51.8,51.8,100,29.98,6.2,Calm,Calm,-,N/A,,Mostly Cloudy,0,2013-01-21 23:50:00
2:00 AM,52,51,95,29.96,6,Calm,Calm,,,,Partly Cloudy,,2013-01-22 00:00:00
2:20 AM,53.6,51.8,94,29.95,6.2,Variable,2.3,-,N/A,,Mostly Cloudy,0,2013-01-22 00:20:00
2:50 AM,55.4,53.6,94,29.95,6.2,SE,5.8,-,N/A,,Mostly Cloudy,140,2013-01-22 00:50:00
3:20 AM,53.6,51.8,94,29.95,6.2,ESE,4.6,-,N/A,,Mostly Cloudy,120,2013-01-22 01:20:00
3:50 AM,51.8,51.8,100,29.95,6.2,North,6.9,-,N/A,,Mostly Cloudy,360,2013-01-22 01:50:00
4:20 AM,51.8,51.8,100,29.92,6.2,North,5.8,-,N/A,,Mostly Cloudy,10,2013-01-22 02:20:00
4:50 AM,50.0,48.2,94,29.92,6.2,NW,3.5,-,N/A,,Mostly Cloudy,310,2013-01-22 02:50:00
5:20 AM,50.0,50.0,100,29.92,6.2,North,5.8,-,N/A,,Mostly Cloudy,350,2013-01-22 03:20:00
5:50 AM,50.0,48.2,94,29.92,6.2,South,1.2,-,N/A,,Mostly Cloudy,190,2013-01-22 03:50:00
6:20 AM,50.0,50.0,100,29.92,6.2,Variable,1.2,-,N/A,,Mostly Cloudy,0,2013-01-22 04:20:00
6:50 AM,48.2,48.2,100,29.92,6.2,Variable,2.3,-,N/A,,Mostly Cloudy,0,2013-01-22 04:50:00
7:20 AM,48.2,48.2,100,29.89,6.2,Variable,1.2,-,N/A,,Mostly Cloudy,0,2013-01-22 05:20:00
7:50 AM,50.0,48.2,94,29.89,6.2,North,4.6,-,N/A,,Mostly Cloudy,350,2013-01-22 05:50:00
8:00 AM,50,49,97,29.89,6,North,4.6,,,,Mostly Cloudy,350,2013-01-22 06:00:00
8:20 AM,53.6,51.8,94,29.89,6.2,North,6.9,-,N/A,,Mostly Cloudy,350,2013-01-22 06:20:00
8:50 AM,57.2,55.4,94,29.89,6.2,NNW,4.6,-,N/A,,Mostly Cloudy,340,2013-01-22 06:50:00
9:20 AM,62.6,55.4,77,29.89,6.2,Variable,3.5,-,N/A,,Mostly Cloudy,0,2013-01-22 07:20:00
9:50 AM,62.6,55.4,77,29.89,6.2,SSW,11.5,-,N/A,,Mostly Cloudy,210,2013-01-22 07:50:00
10:20 AM,64.4,55.4,73,29.89,6.2,SSW,9.2,-,N/A,,Mostly Cloudy,210,2013-01-22 08:20:00
10:50 AM,66.2,51.8,60,29.89,6.2,SSW,8.1,-,N/A,,Mostly Cloudy,200,2013-01-22 08:50:00
11:20 AM,64.4,51.8,64,29.89,6.2,SSW,6.9,-,N/A,,Mostly Cloudy,200,2013-01-22 09:20:00
11:50 AM,62.6,51.8,68,29.89,6.2,SSW,5.8,-,N/A,,Mostly Cloudy,210,2013-01-22 09:50:00
12:20 PM,64.4,51.8,64,29.86,6.2,South,3.5,-,N/A,,Mostly Cloudy,180,2013-01-22 10:20:00
12:50 PM,64.4,51.8,64,29.86,6.2,SSE,3.5,-,N/A,,Mostly Cloudy,160,2013-01-22 10:50:00
1:20 PM,59.0,53.6,82,29.86,6.2,WNW,8.1,-,N/A,,Mostly Cloudy,290,2013-01-22 11:20:00
1:50 PM,57.2,55.4,94,29.86,2.5,West,9.2,-,N/A,Rain,Light Rain Showers,280,2013-01-22 11:50:00
2:00 PM,58,56,89,29.86,2,West,9.2,,,Rain,Light Rain Showers,280,2013-01-22 12:00:00
2:20 PM,57.2,55.4,94,29.86,0.7,West,10.4,-,N/A,Rain-Thunderstorm,Heavy Thunderstorms and Rain,270,2013-01-22 12:20:00
2:50 PM,59.0,55.4,88,29.86,0.7,SW,10.4,-,N/A,Rain-Thunderstorm,Heavy Thunderstorms and Rain,230,2013-01-22 12:50:00
3:20 PM,59.0,55.4,88,29.86,2.5,SW,4.6,-,N/A,Rain-Thunderstorm,Thunderstorms and Rain,230,2013-01-22 13:20:00
3:50 PM,57.2,53.6,88,29.86,1.2,South,11.5,-,N/A,Rain-Thunderstorm,Thunderstorms and Rain,190,2013-01-22 13:50:00
4:20 PM,59.0,55.4,88,29.89,3.7,South,9.2,-,N/A,Rain-Thunderstorm,Light Thunderstorms and Rain,180,2013-01-22 14:20:00
4:50 PM,57.2,55.4,94,29.89,3.7,Variable,1.2,-,N/A,Rain-Thunderstorm,Light Thunderstorms and Rain,0,2013-01-22 14:50:00
5:20 PM,57.2,55.4,94,29.89,3.7,WNW,4.6,-,N/A,Rain-Thunderstorm,Light Thunderstorms and Rain,300,2013-01-22 15:20:00
5:50 PM,57.2,55.4,94,29.89,3.7,North,6.9,-,N/A,Rain-Thunderstorm,Light Thunderstorms and Rain,350,2013-01-22 15:50:00
6:20 PM,57.2,55.4,94,29.89,3.7,North,5.8,-,N/A,Rain-Thunderstorm,Light Thunderstorms and Rain,350,2013-01-22 16:20:00
6:50 PM,55.4,53.6,94,29.92,3.7,North,5.8,-,N/A,Rain-Thunderstorm,Light Thunderstorms and Rain,350,2013-01-22 16:50:00
7:20 PM,53.6,53.6,100,29.92,2.5,North,8.1,-,N/A,,Mostly Cloudy,350,2013-01-22 17:20:00
7:50 PM,55.4,53.6,94,29.92,2.5,North,3.5,-,N/A,,Mostly Cloudy,360,2013-01-22 17:50:00
8:00 PM,55,54,95,29.91,2,North,3.5,,,,Mist,0,2013-01-22 18:00:00
8:20 PM,55.4,55.4,100,29.92,6.2,NNE,4.6,-,N/A,Rain,Light Rain Showers,30,2013-01-22 18:20:00
8:50 PM,55.4,53.6,94,29.89,6.2,NNE,4.6,-,N/A,,Mostly Cloudy,30,2013-01-22 18:50:00
9:20 PM,55.4,53.6,94,29.89,6.2,North,8.1,-,N/A,Rain,Light Rain Showers,350,2013-01-22 19:20:00
9:50 PM,55.4,53.6,94,29.92,6.2,NW,5.8,-,N/A,Rain,Light Rain Showers,320,2013-01-22 19:50:00
10:20 PM,53.6,53.6,100,29.92,6.2,North,6.9,-,N/A,Rain,Light Rain Showers,350,2013-01-22 20:20:00
10:50 PM,53.6,51.8,94,29.92,6.2,NNW,8.1,-,N/A,,Mostly Cloudy,340,2013-01-22 20:50:00
11:20 PM,53.6,51.8,94,29.92,6.2,NNW,6.9,-,N/A,,Scattered Clouds,340,2013-01-22 21:20:00
11:50 PM,51.8,51.8,100,29.92,6.2,NNW,6.9,-,N/A,,Scattered Clouds,340,2013-01-22 21:50:00